This is the latest recevied weather packets stored in our database for station/object WP3OF-5. If no packets are shown the sender has not sent any weather packets the latest 10 day(s).
| Time | Temp. | Humidity | Pressure | Rain* | Wind** | Luminosity | Snow |
|---|---|---|---|---|---|---|---|
| 1777827146 | 30° C | 72% | 1017 hPa | 0 mm | - | - | - |
| 1777826841 | 30.56° C | 69% | 1017.4 hPa | 0 mm | - | - | - |
| 1777826540 | 30° C | 72% | 1017.4 hPa | 0 mm | - | - | - |
| 1777826235 | 29.44° C | 73% | 1017.2 hPa | 0 mm | - | - | - |
| 1777825933 | 29.44° C | 72% | 1017.3 hPa | 0 mm | - | - | - |
| 1777825630 | 30° C | 69% | 1017.6 hPa | 0 mm | - | - | - |
| 1777825328 | 30° C | 70% | 1017.3 hPa | 0 mm | - | - | - |
| 1777825024 | 30° C | 69% | 1017.2 hPa | 0 mm | - | - | - |
| 1777824720 | 29.44° C | 70% | 1017.3 hPa | 0 mm | - | - | - |
| 1777824418 | 30° C | 67% | 1017.5 hPa | 0 mm | - | - | - |
| 1777824113 | 30.56° C | 68% | 1017.7 hPa | 0 mm | - | - | - |
| 1777823809 | 31.11° C | 68% | 1017.9 hPa | 0 mm | - | - | - |
| 1777823508 | 31.11° C | 64% | 1017.6 hPa | 0 mm | - | - | - |
| 1777823204 | 31.11° C | 65% | 1017.7 hPa | 0 mm | - | - | - |
| 1777822902 | 31.67° C | 61% | 1017.8 hPa | 0 mm | - | - | - |
| 1777822600 | 31.11° C | 61% | 1017.8 hPa | 0 mm | - | - | - |
| 1777822297 | 30.56° C | 59% | 1018 hPa | 0 mm | - | - | - |
| 1777821994 | 30.56° C | 60% | 1017.9 hPa | 0 mm | - | - | - |
| 1777821692 | 30.56° C | 60% | 1017.8 hPa | 0 mm | - | - | - |
| 1777821390 | 30.56° C | 57% | 1017.8 hPa | 0 mm | - | - | - |
| 1777821086 | 30.56° C | 59% | 1017.8 hPa | 0 mm | - | - | - |
| 1777820783 | 30.56° C | 60% | 1018.2 hPa | 0 mm | - | - | - |
| 1777820479 | 31.11° C | 59% | 1018.4 hPa | 0 mm | - | - | - |
| 1777820177 | 30.56° C | 60% | 1018.2 hPa | 0 mm | - | - | - |
| 1777819874 | 30.56° C | 60% | 1018.4 hPa | 0 mm | - | - | - |
* Rain latest hour (hover to see other rain measurements)
** Current wind speed in m/s (hover to see current wind gust speed)